SCOUT B DEB, 2800

Orbit data source: Space-Track

SCOUT B DEB, 2800 is space debris in LEO originally from a launch on Thu, 04 Aug 1966 UTC launched from the Air Force Western Test Range (AFWTR). Debris objects in space refer to the collection of defunct objects orbiting the Earth. Examples of debris include non-operational satellites, rocket bodies, and fragments generated from explosions, collisions, or faulty payload assembly.

Loading next visibility...
Identifier
2800, 1966-070D
Orbit
LEO
Country
Flag of USUS
Related business
Manufacturer
Unknown
Mission
Spacecraft
Bus & Motor
Unknown
Mass
Unknown
Launch date (UTC)
1966-08-04 (60 years ago)
Launch vehicle
Unknown
Launch site
Air Force Western Test Range (AFWTR)
Object type
Payload
Rocket body
Debris
Shape & HBR
Unknown shape, 0.1 m
Radar Cross Section
Medium (>0.1 m² and <1 m²)

Expand to show TLE details & history
Last TLE update: 2 days ago

TLE from 2 days ago
0 SCOUT B DEB
1 02800U 66070D   26207.01753772  .00006371  00000-0  81854-3 0  9994
2 02800  81.4000 216.0401 1381826 324.3114  27.2754 12.44128857589603
Epoch: 2026-07-26T00:25Z
TLE epoch observation values (Epoch: 2026-07-26T00:25:15.259Z)
Latitude
-0.00002°
Longitude
-93.99499°
Altitude
563.893 km
Speed
8.014 km/s
True Right ascension
14h 24m 09s
True Declination
0° 00' 00"
Sunlit
Object was in daylight at epoch
Visualization orbit readout
Latitude
Unknown
Longitude
Unknown
Altitude
Unknown
Speed
Unknown
Apparent Right ascension
Unknown
Apparent Declination
Unknown
Sunlit
N/A
Visualization observer readout
Local Sidereal Time
05:05:23
Azimuth
Unknown
Elevation
Unknown
Doppler factor
Unknown
Orbital elements
Apogee altitude
2,573.218 km
Perigee altitude
399.715 km
Semi-major axis
7,864.604 km
Eccentricity
0.13818
Inclination
81.4°
RAAN
216.0401°
Arg. of periapsis
324.3114°
True anomaly
35.80426°
Mean anomaly
27.2754°
Eccentric anomaly
31.40043°
Mean motion
3.11192 °/min
Orbital period
115.68 mins
BSTAR
0.00081854
Loading maneuver chart data...
Computing Atmospheric mass density...
Loading historical data...
Loading historical data...
Loading historical data...
Loading historical data...
Loading historical data...
Loading historical data...
Loading historical data...
Other satellites on launch #70 in the year 1966 (1966-08-04 UTC)

Documentation

Showing up to 5 results
|